Time,TemperatureF,DewpointF,PressureIn,WindDirection,WindDirectionDegrees,WindSpeedMPH,WindSpeedGustMPH,Humidity,HourlyPrecipIn,Conditions,Clouds,dailyrainin,SoftwareType,DateUTC
2013-11-21 00:11:00,40.9,38.0,30.15,East,94,3.0,4.0,89,0.00,,,0.00,weatherlink.com 1.10,2013-11-21 06:11:00,
2013-11-21 00:26:00,41.0,38.0,30.15,East,88,3.0,6.0,89,0.00,,,0.00,weatherlink.com 1.10,2013-11-21 06:26:00,
2013-11-21 00:41:00,41.2,38.0,30.15,East,90,3.0,6.0,89,0.00,,,0.00,weatherlink.com 1.10,2013-11-21 06:41:00,
2013-11-21 00:56:00,41.3,38.0,30.14,ESE,102,3.0,6.0,89,0.00,,,0.00,weatherlink.com 1.10,2013-11-21 06:56:00,
2013-11-21 01:11:00,41.6,38.0,30.15,ESE,111,4.0,7.0,88,0.00,,,0.00,weatherlink.com 1.10,2013-11-21 07:11:00,
2013-11-21 01:26:00,41.9,38.0,30.14,ESE,111,3.0,6.0,87,0.00,,,0.00,weatherlink.com 1.10,2013-11-21 07:26:00,
2013-11-21 01:41:00,42.1,38.0,30.15,ESE,115,6.0,6.0,86,0.00,,,0.00,weatherlink.com 1.10,2013-11-21 07:41:00,
2013-11-21 01:56:00,42.7,39.0,30.15,SE,131,5.0,8.0,85,0.00,,,0.00,weatherlink.com 1.10,2013-11-21 07:56:00,
2013-11-21 02:11:00,43.1,39.0,30.15,SE,132,5.0,10.0,84,0.00,,,0.00,weatherlink.com 1.10,2013-11-21 08:11:00,
2013-11-21 02:26:00,43.3,39.0,30.15,SE,138,7.0,9.0,83,0.00,,,0.00,weatherlink.com 1.10,2013-11-21 08:26:00,
2013-11-21 02:41:00,43.4,39.0,30.14,SE,140,5.0,9.0,83,0.00,,,0.00,weatherlink.com 1.10,2013-11-21 08:41:00,
2013-11-21 02:57:00,43.5,39.0,30.14,SE,146,6.0,9.0,83,0.00,,,0.00,weatherlink.com 1.10,2013-11-21 08:57:00,
2013-11-21 03:11:00,43.6,38.0,30.14,SE,142,5.0,9.0,82,0.00,,,0.00,weatherlink.com 1.10,2013-11-21 09:11:00,
2013-11-21 03:26:00,43.8,39.0,30.13,SE,146,5.0,8.0,82,0.00,,,0.00,weatherlink.com 1.10,2013-11-21 09:26:00,
2013-11-21 03:41:00,43.9,39.0,30.13,SSE,149,6.0,9.0,82,0.00,,,0.00,weatherlink.com 1.10,2013-11-21 09:41:00,
2013-11-21 03:56:00,44.0,39.0,30.13,SSE,154,4.0,8.0,83,0.00,,,0.00,weatherlink.com 1.10,2013-11-21 09:56:00,
2013-11-21 04:11:00,44.0,39.0,30.13,SSE,160,5.0,8.0,83,0.00,,,0.00,weatherlink.com 1.10,2013-11-21 10:11:00,
2013-11-21 04:26:00,44.2,39.0,30.14,South,178,5.0,7.0,83,0.00,,,0.00,weatherlink.com 1.10,2013-11-21 10:26:00,
2013-11-21 04:41:00,44.6,39.0,30.14,South,174,5.0,8.0,82,0.00,,,0.00,weatherlink.com 1.10,2013-11-21 10:41:00,
2013-11-21 04:56:00,44.7,40.0,30.14,South,184,3.0,7.0,82,0.00,,,0.00,weatherlink.com 1.10,2013-11-21 10:56:00,
2013-11-21 05:11:00,44.7,40.0,30.13,South,173,6.0,8.0,83,0.00,,,0.00,weatherlink.com 1.10,2013-11-21 11:11:00,
2013-11-21 05:26:00,44.8,40.0,30.13,South,182,3.0,6.0,83,0.00,,,0.00,weatherlink.com 1.10,2013-11-21 11:26:00,
2013-11-21 05:41:00,45.2,40.0,30.13,South,181,3.0,8.0,83,0.00,,,0.00,weatherlink.com 1.10,2013-11-21 11:41:00,
2013-11-21 05:56:00,45.2,41.0,30.14,South,184,4.0,7.0,84,0.00,,,0.00,weatherlink.com 1.10,2013-11-21 11:56:00,
2013-11-21 06:11:00,45.3,41.0,30.14,South,187,5.0,8.0,84,0.00,,,0.00,weatherlink.com 1.10,2013-11-21 12:11:00,
2013-11-21 06:26:00,45.3,41.0,30.15,South,183,5.0,7.0,85,0.00,,,0.00,weatherlink.com 1.10,2013-11-21 12:26:00,
2013-11-21 06:41:00,45.4,41.0,30.15,South,184,4.0,5.0,85,0.00,,,0.00,weatherlink.com 1.10,2013-11-21 12:41:00,
2013-11-21 06:56:00,45.4,41.0,30.15,South,175,3.0,8.0,85,0.00,,,0.00,weatherlink.com 1.10,2013-11-21 12:56:00,
2013-11-21 07:11:00,45.9,41.0,30.16,SSW,196,6.0,10.0,84,0.00,,,0.00,weatherlink.com 1.10,2013-11-21 13:11:00,
2013-11-21 07:26:00,46.1,42.0,30.16,South,180,7.0,9.0,84,0.00,,,0.00,weatherlink.com 1.10,2013-11-21 13:26:00,
2013-11-21 07:42:00,46.2,42.0,30.16,South,177,5.0,8.0,84,0.00,,,0.00,weatherlink.com 1.10,2013-11-21 13:42:00,
2013-11-21 07:57:00,46.5,42.0,30.16,South,180,10.0,11.0,83,0.00,,,0.00,weatherlink.com 1.10,2013-11-21 13:57:00,
2013-11-21 08:12:00,46.6,42.0,30.17,South,182,8.0,12.0,83,0.00,,,0.00,weatherlink.com 1.10,2013-11-21 14:12:00,
2013-11-21 08:27:00,46.4,42.0,30.18,South,171,8.0,9.0,84,0.00,,,0.00,weatherlink.com 1.10,2013-11-21 14:27:00,
2013-11-21 08:42:00,46.5,42.0,30.19,SSE,160,9.0,11.0,84,0.00,,,0.00,weatherlink.com 1.10,2013-11-21 14:42:00,
2013-11-21 08:57:00,46.8,42.0,30.18,SSW,194,13.0,14.0,84,0.00,,,0.00,weatherlink.com 1.10,2013-11-21 14:57:00,
2013-11-21 09:12:00,47.1,43.0,30.18,South,190,8.0,14.0,84,0.00,,,0.00,weatherlink.com 1.10,2013-11-21 15:12:00,
2013-11-21 09:27:00,47.6,43.0,30.18,South,182,8.0,14.0,84,0.00,,,0.00,weatherlink.com 1.10,2013-11-21 15:27:00,
2013-11-21 09:42:00,48.2,43.0,30.18,South,182,7.0,13.0,83,0.00,,,0.00,weatherlink.com 1.10,2013-11-21 15:42:00,
2013-11-21 09:57:00,48.8,43.0,30.18,South,183,14.0,17.0,81,0.00,,,0.00,weatherlink.com 1.10,2013-11-21 15:57:00,
2013-11-21 10:12:00,48.7,43.0,30.18,South,182,13.0,16.0,82,0.00,,,0.00,weatherlink.com 1.10,2013-11-21 16:12:00,
2013-11-21 10:27:00,48.6,43.0,30.18,SSW,201,9.0,15.0,82,0.00,,,0.00,weatherlink.com 1.10,2013-11-21 16:27:00,
2013-11-21 10:42:00,48.7,44.0,30.18,SSW,193,8.0,14.0,84,0.00,,,0.00,weatherlink.com 1.10,2013-11-21 16:42:00,
2013-11-21 10:57:00,48.8,44.0,30.18,SSW,201,8.0,12.0,84,0.00,,,0.00,weatherlink.com 1.10,2013-11-21 16:57:00,
2013-11-21 11:12:00,48.7,44.0,30.17,SSW,206,9.0,13.0,84,0.00,,,0.00,weatherlink.com 1.10,2013-11-21 17:12:00,
2013-11-21 11:27:00,48.5,44.0,30.16,SW,217,8.0,11.0,85,0.00,,,0.00,weatherlink.com 1.10,2013-11-21 17:27:00,
2013-11-21 11:42:00,48.6,44.0,30.16,SSW,192,6.0,11.0,85,0.00,,,0.00,weatherlink.com 1.10,2013-11-21 17:42:00,
2013-11-21 11:57:00,48.7,44.0,30.16,SW,217,5.0,12.0,85,0.00,,,0.00,weatherlink.com 1.10,2013-11-21 17:57:00,
2013-11-21 12:12:00,48.6,45.0,30.15,SSW,205,9.0,10.0,86,0.00,,,0.00,weatherlink.com 1.10,2013-11-21 18:12:00,
2013-11-21 12:27:00,48.4,45.0,30.15,SSW,200,9.0,11.0,87,0.00,,,0.00,weatherlink.com 1.10,2013-11-21 18:27:00,
2013-11-21 12:42:00,48.1,44.0,30.15,SSW,198,9.0,12.0,87,0.00,,,0.00,weatherlink.com 1.10,2013-11-21 18:42:00,
2013-11-21 12:57:00,47.6,45.0,30.16,SSW,204,9.0,12.0,89,0.01,,,0.01,weatherlink.com 1.10,2013-11-21 18:57:00,
2013-11-21 13:12:00,47.4,45.0,30.15,South,185,9.0,10.0,90,0.02,,,0.02,weatherlink.com 1.10,2013-11-21 19:12:00,
2013-11-21 13:27:00,47.4,45.0,30.15,SSW,198,6.0,9.0,91,0.03,,,0.03,weatherlink.com 1.10,2013-11-21 19:27:00,
2013-11-21 13:57:00,47.2,45.0,30.14,SSW,201,6.0,9.0,92,0.05,,,0.06,weatherlink.com 1.10,2013-11-21 19:57:00,
2013-11-21 14:12:00,47.1,45.0,30.14,SW,214,7.0,9.0,92,0.05,,,0.07,weatherlink.com 1.10,2013-11-21 20:12:00,
2013-11-21 14:27:00,47.0,45.0,30.14,SSW,200,6.0,9.0,92,0.05,,,0.08,weatherlink.com 1.10,2013-11-21 20:27:00,
2013-11-21 14:42:00,46.9,45.0,30.14,SSW,211,7.0,8.0,92,0.04,,,0.09,weatherlink.com 1.10,2013-11-21 20:42:00,
2013-11-21 14:57:00,46.8,45.0,30.14,South,182,4.0,8.0,92,0.04,,,0.10,weatherlink.com 1.10,2013-11-21 20:57:00,
2013-11-21 15:12:00,46.8,45.0,30.14,South,184,4.0,7.0,93,0.05,,,0.12,weatherlink.com 1.10,2013-11-21 21:12:00,
2013-11-21 15:27:00,46.8,45.0,30.14,South,183,4.0,7.0,93,0.06,,,0.14,weatherlink.com 1.10,2013-11-21 21:27:00,
2013-11-21 15:42:00,46.8,45.0,30.15,South,187,3.0,7.0,93,0.06,,,0.15,weatherlink.com 1.10,2013-11-21 21:42:00,
2013-11-21 15:57:00,46.8,45.0,30.15,SSW,194,5.0,7.0,93,0.07,,,0.17,weatherlink.com 1.10,2013-11-21 21:57:00,
2013-11-21 16:12:00,46.8,45.0,30.15,South,190,7.0,8.0,93,0.07,,,0.19,weatherlink.com 1.10,2013-11-21 22:12:00,
2013-11-21 16:27:00,46.8,45.0,30.16,SSW,209,4.0,8.0,93,0.07,,,0.21,weatherlink.com 1.10,2013-11-21 22:27:00,
2013-11-21 16:42:00,46.7,45.0,30.15,South,187,6.0,8.0,93,0.09,,,0.24,weatherlink.com 1.10,2013-11-21 22:42:00,
2013-11-21 16:57:00,46.6,45.0,30.15,South,175,4.0,8.0,93,0.09,,,0.26,weatherlink.com 1.10,2013-11-21 22:57:00,
2013-11-21 17:12:00,46.6,45.0,30.15,SSW,194,2.0,3.0,93,0.09,,,0.28,weatherlink.com 1.10,2013-11-21 23:12:00,
2013-11-21 17:27:00,46.6,45.0,30.15,SSW,207,3.0,4.0,93,0.08,,,0.29,weatherlink.com 1.10,2013-11-21 23:27:00,
2013-11-21 17:42:00,46.5,45.0,30.14,SSW,206,0.0,3.0,93,0.06,,,0.30,weatherlink.com 1.10,2013-11-21 23:42:00,
2013-11-21 17:57:00,46.5,45.0,30.15,SSW,198,3.0,3.0,93,0.05,,,0.31,weatherlink.com 1.10,2013-11-21 23:57:00,
2013-11-21 18:13:00,46.4,45.0,30.14,SSW,198,1.0,3.0,93,0.03,,,0.31,weatherlink.com 1.10,2013-11-22 00:13:00,
2013-11-21 18:27:00,46.4,45.0,30.15,SSW,198,3.0,4.0,93,0.02,,,0.31,weatherlink.com 1.10,2013-11-22 00:27:00,
2013-11-21 18:42:00,46.4,45.0,30.16,SSW,199,3.0,4.0,94,0.01,,,0.31,weatherlink.com 1.10,2013-11-22 00:42:00,
2013-11-21 18:57:00,46.5,45.0,30.16,SSW,199,3.0,4.0,94,0.00,,,0.31,weatherlink.com 1.10,2013-11-22 00:57:00,
2013-11-21 19:12:00,46.4,45.0,30.16,SSW,199,4.0,5.0,94,0.01,,,0.32,weatherlink.com 1.10,2013-11-22 01:12:00,
2013-11-21 19:42:00,46.4,45.0,30.16,SSW,213,0.0,2.0,94,0.02,,,0.33,weatherlink.com 1.10,2013-11-22 01:42:00,
2013-11-21 19:57:00,46.3,45.0,30.16,SSW,213,0.0,0.0,94,0.02,,,0.33,weatherlink.com 1.10,2013-11-22 01:57:00,
2013-11-21 20:12:00,46.3,45.0,30.17,SSW,213,2.0,3.0,94,0.01,,,0.33,weatherlink.com 1.10,2013-11-22 02:12:00,
2013-11-21 20:27:00,46.2,45.0,30.16,SSW,213,0.0,0.0,94,0.01,,,0.33,weatherlink.com 1.10,2013-11-22 02:27:00,
2013-11-21 20:42:00,46.3,45.0,30.18,SSW,213,3.0,3.0,94,0.00,,,0.33,weatherlink.com 1.10,2013-11-22 02:42:00,
2013-11-21 20:57:00,46.5,45.0,30.18,WSW,246,1.0,4.0,94,0.00,,,0.33,weatherlink.com 1.10,2013-11-22 02:57:00,
2013-11-21 21:12:00,46.7,45.0,30.18,WSW,246,2.0,3.0,94,0.00,,,0.33,weatherlink.com 1.10,2013-11-22 03:12:00,
2013-11-21 21:27:00,46.7,45.0,30.18,WSW,246,1.0,3.0,94,0.00,,,0.33,weatherlink.com 1.10,2013-11-22 03:27:00,
2013-11-21 21:42:00,46.8,45.0,30.17,WSW,250,0.0,4.0,94,0.00,,,0.33,weatherlink.com 1.10,2013-11-22 03:42:00,
2013-11-21 21:57:00,46.9,45.0,30.17,WSW,257,2.0,4.0,94,0.00,,,0.33,weatherlink.com 1.10,2013-11-22 03:57:00,
2013-11-21 22:12:00,46.9,45.0,30.17,West,262,3.0,4.0,94,0.00,,,0.33,weatherlink.com 1.10,2013-11-22 04:12:00,
2013-11-21 22:27:00,46.9,45.0,30.17,WSW,257,0.0,3.0,94,0.00,,,0.33,weatherlink.com 1.10,2013-11-22 04:27:00,
2013-11-21 22:42:00,46.9,45.0,30.17,WNW,290,3.0,4.0,94,0.00,,,0.33,weatherlink.com 1.10,2013-11-22 04:42:00,
2013-11-21 22:57:00,46.8,45.0,30.18,West,273,2.0,3.0,94,0.00,,,0.33,weatherlink.com 1.10,2013-11-22 04:57:00,
2013-11-21 23:12:00,46.7,45.0,30.18,West,273,0.0,3.0,94,0.00,,,0.33,weatherlink.com 1.10,2013-11-22 05:12:00,
2013-11-21 23:28:00,46.7,45.0,30.17,West,273,0.0,2.0,94,0.00,,,0.33,weatherlink.com 1.10,2013-11-22 05:28:00,
2013-11-21 23:42:00,46.7,45.0,30.17,West,273,0.0,1.0,94,0.00,,,0.33,weatherlink.com 1.10,2013-11-22 05:42:00,
2013-11-21 23:57:00,46.7,45.0,30.17,West,273,0.0,2.0,94,0.00,,,0.33,weatherlink.com 1.10,2013-11-22 05:57:00,